Regional Weather Roundup
Issued by NWS

Home | Current Version | Previous Version | Graphics & Text | Print | Product List | Glossary On
Versions: 1 2 3 4 5 6 7 8 9 10 11 12 13 14 15 16 17 18 19 20 21 22 23 24 25 26 27
000
ASUS45 KPSR 220910
RWRAZ

ARIZONA HOURLY REGIONAL WEATHER ROUNDUP
NATIONAL WEATHER SERVICE PHOENIX AZ
200 AM MST SUN OCT 22 2017

NOTE: FAIR INDICATES FEW OR NO CLOUDS BELOW 12,000 FEET WITH NO
SIGNIFICANT WEATHER AND/OR OBSTRUCTIONS TO VISIBILITY.

AZZ001>003-036-221000-
NORTHWEST ARIZONA

CITY           SKY/WX    TMP DP  RH WIND       PRES   REMARKS
BULLHEAD CITY  CLEAR     70  14  11 N22G28    30.15R
KINGMAN        CLEAR     49  14  24 E9        30.29R
$$

AZZ004>008-015-016-018-221000-
NORTH CENTRAL ARIZONA

CITY           SKY/WX    TMP DP  RH WIND       PRES   REMARKS
GRAND CANYON   PTCLDY    27   6  41 CALM      30.41R
WILLIAMS       PTCLDY    39   7  26 S8        30.38S WCI  34
PRESCOTT       CLEAR     42  15  33 SW3       30.32R
FLAGSTAFF      PTCLDY    26  10  50 CALM      30.40S
PAYSON         CLEAR     54   3  13 NE8       30.30S
PAGE           CLEAR     48  19  31 W3        30.34R
$$

AZZ009>014-017-221000-
NORTHEAST ARIZONA

CITY           SKY/WX    TMP DP  RH WIND       PRES   REMARKS
WINSLOW        MOCLDY    35   5  28 S5        30.36S WCI  31
SAINT JOHNS    PTCLDY    37  11  34 S5        30.36R WCI  33
WINDOW ROCK    CLEAR     30   2  30 CALM      30.40R
SHOW LOW       PTCLDY    34   7  32 E8        30.38F WCI  27
$$

AZZ540-542>544-546-548-221000-
GREATER PHOENIX AREA

CITY           SKY/WX    TMP DP  RH WIND       PRES   REMARKS
PHOENIX        CLEAR     66  35  31 S3        30.08R
BUCKEYE        PTCLDY    59  10  14 NW8       30.11R
LUKE AFB       CLEAR     65  22  19 NW7       30.08R
DEER VALLEY    CLEAR     63  35  35 CALM      30.10R
SCOTTSDALE     CLEAR     64  43  46 CALM      30.11R
MESA-GATEWAY   CLEAR     57  36  44 E3        30.12R
$$

AZZ539-553-221000-
SOUTHWEST MARICOPA COUNTY AND PINAL COUNTY

CITY           SKY/WX    TMP DP  RH WIND       PRES   REMARKS
CASA GRANDE    NOT AVBL
$$

AZZ503-504-507>509-221000-
SOUTHEAST ARIZONA

CITY           SKY/WX    TMP DP  RH WIND       PRES   REMARKS
TUCSON         CLEAR     59  35  40 SE6       30.16S
DAVIS-MONTHAN  CLEAR     57  36  45 SE6       30.14S
NOGALES        CLEAR     50  34  54 E5        30.20S
SIERRA VISTA   CLEAR     54  35  49 CALM      30.25S
DOUGLAS        CLEAR     49  33  54 N7        30.22R
SAFFORD        CLEAR     52  23  32 CALM      30.16S
$$

AZZ532-221000-
SOUTHWEST ARIZONA

CITY           SKY/WX    TMP DP  RH WIND       PRES   REMARKS
YUMA           CLEAR     68  19  15 NW7       30.09R
$$

CAZ041-043-047-048-061-525>527-560>570-221000-
SOUTHERN CALIFORNIA

CITY           SKY/WX    TMP DP  RH WIND       PRES   REMARKS
DOWNTOWN L.A.  CLEAR     63  42  46 CALM      30.09S
L.A. AIRPORT   CLEAR     63  50  62 E6        30.10R
SAN DIEGO      CLEAR     65  58  78 CALM      30.10S
BURBANK        CLEAR     61  32  33 CALM      30.11S
ONTARIO        CLEAR     62  38  40 CALM      30.13S
RIVERSIDE      CLEAR     61  32  33 E7        30.13S
PALM SPRINGS   CLEAR     66  20  17 N9        30.15R
EL CENTRO NAS  CLEAR     60  25  26 SW5       30.11R
IMPERIAL       CLEAR     61  32  33 W7        30.09R
BLYTHE         CLEAR     66  13  12 N8        30.13R
NEEDLES        CLEAR     69  13  11 N10       30.17R
$$

NVZ020-UTZ003-221000-
SOUTHERN NEVADA-UTAH

CITY           SKY/WX    TMP DP  RH WIND       PRES   REMARKS
LAS VEGAS      CLEAR     59  17  19 SW5       30.27R
SALT LAKE CITY PTCLDY    46  24  42 SE8       30.31F
$$

NMZ009-TXZ055-221000-
NEW MEXICO-WEST TEXAS

CITY           SKY/WX    TMP DP  RH WIND       PRES   REMARKS
ALBUQUERQUE    CLOUDY    47   4  17 NW5       30.33R
EL PASO        CLEAR     63  26  24 NW12      30.20R
$$


........................KEY........................
SKY/WX - SKY CONDITION/WEATHER
TMP    - TEMPERATURE IN FAHRENHEIT
DP     - DEW POINT IN FAHRENHEIT
RH     - RELATIVE HUMIDITY IN PERCENT
WIND   - DIRECTION AND SPEED IN MILES PER HOUR (MPH)
VRB    - VARIABLE WIND DIRECTION
PRES   - MEAN SEA LEVEL PRESSURE IN INCHES OF MERCURY
         F - FALLING PRESSURE   R - RISING PRESSURE
         S - STEADY PRESSURE
VSB    - VISIBILITY IN MILES
HX     - HEAT INDEX IN FAHRENHEIT
WCI    - WIND CHILL INDEX IN FAHRENHEIT
TC     - TEMPERATURE IN CELSIUS WHICH IS ALSO KNOWN AS
         TEMPERATURE IN CENTIGRADE
AFB    - AIR FORCE BASE
         LUKE AFB IS LUKE AIR FORCE BASE
         DAVIS-MONTHAN IS DAVIS-MONTHAN AIR FORCE BASE
NAS    - NAVAL AIR STATION
         EL CENTRO NAS IS EL CENTRO NAVAL AIR STATION
N/A    - NOT AVAILABLE





USA.gov is the U.S. government's official web portal to all federal, state and local government web resources and services.